Погода в Клепке

Россия / Магаданская область     59°45′14″N   151°29′27″E
темп.,
°C
ветер,
м/с
пор.,
м/с
влажн.,
%
обл.,
%
осадки,
мм/ч
давл.,
гПа
погр.,
м
14 апреля, ср
ср1423:00−19ссв328310 0.0 102011
02:00−20ссв338554 0.0 102016
05:00−21ссв338499 0.0 102018
08:00−16св3476100 0.0 1017123
11:00−9всв6865100 0.0 1014531
14:00−6в8962100 0.0 1011750
17:00−8в91375100 0.1 1009885
20:00−9в91488100 0.8 1007488
15 апреля, чт
чт1523:00−9всв91782100 1.1 1007711
02:00−10в9138495 0.1 1007333
05:00−11всв71084100 0.1 1008232
08:00−10всв61083100 0.0 1008355
11:00−6всв6872100 0.1 1007670
14:00−4в787498 0.0 1006698
17:00−4в787685 0.0 1005482
20:00−7всв4782100 0.0 1006113
16 апреля, пт
пт1623:00−8в2293100 0.2 100733
02:00−9всв2296100 0.9 100839
05:00−12св2293100 1.0 100913
08:00−8св229397 0.1 1010143
11:00−6в117754 0.3 1012402
14:00−4юз227675 0.0 1014651
17:00−3ююз447541 0.1 1015574
20:00−10ююв12935 0.0 101810
17 апреля, сб
сб1723:00−14ссв119639 0.0 101910
02:00−15ссв229778 0.0 102010
05:00−15ссв2296100 0.1 102011
08:00−10св1192100 0.1 102175
11:00−7ююз128499 0.2 1021356
14:00−4юз348783 0.1 1020528
17:00−4ююз348561 0.1 1021426
20:00−9ююв119570 0.0 102210
18 апреля, вс
вс1823:00−11св229848 0.1 102210
02:00−11св229663 0.0 102218
05:00−9св2293100 0.1 102029
08:00−6св2391100 0.3 1020125
11:00−3вюв2295100 1.4 1020234
14:00−2в2299100 1.3 1020232
17:00−1в1196100 1.8 1021118
20:00−2св1198100 0.2 102310